Home > Weather > Chernobyl > Past weeks

Flag for Ukraine Past Weather in Chernobyl, Ukraine — Yesterday and Last 2 Weeks

Now
59 °F

Cool.


Feels Like: 58 °F
Forecast: 56 / 77 °F
Wind: 6 mph from Northwest

Location: Hostomel

Current Time: May 27, 2016 at 1:34:03 AM

Latest Report: May 27, 2016 at 1:00 AM


Visibility: 5 mi

Pressure: 29.92 "Hg

Humidity: 77%

Dew Point: 52 °F

Location of ChernobylLocation

Past Weather in Chernobyl — Graph

°F

Chernobyl Temperature Yesterday

Maximum temperature yesterday: 75 °F (at 3:30 PM)
Minimum temperature yesterday: 50 °F (at 1:00 AM)
Average temperature yesterday: 63 °F

High & Low Weather Summary for the Past Weeks

 TemperatureHumidityPressure
High75 °F (May 26, 3:30 PM)100% (May 12, 5:30 AM)30.01 "Hg (May 12, 5:30 AM)
Low43 °F (May 18, 4:00 AM)35% (May 21, 5:30 PM)29.45 "Hg (May 14, 5:00 AM)
Average57 °F76%29.80 "Hg
* Reported May 12 12:00 AM — May 27 12:30 AM, Chernobyl, Weather by CustomWeather, © 2016

Note: Actual official high and low records may vary slightly from our data, if they occured in-between our weather recording intervals... More about our weather records

Advertising

Chernobyl Weather History for the Previous 24 Hours

Scroll right to see more
 ConditionsComfort  
Time TempWeatherWind HumidityBarometerVisibility
12:30 AM
Fri, May 27
59 °FClear.6 mph82%29.92 "HgN/A
12:00 AM59 °FCool.6 mph82%29.92 "Hg6 mi
11:30 PM
Thu, May 26
61 °FCool.1 mph77%29.92 "HgN/A
11:00 PM64 °FMild.1 mph68%29.92 "HgN/A
10:30 PM64 °FMild.3 mph64%29.92 "HgN/A
10:00 PM64 °FMild.3 mph68%29.92 "HgN/A
9:30 PM66 °FMild.6 mph64%29.92 "HgN/A
9:00 PM68 °FMild.3 mph56%29.89 "HgN/A
8:30 PM70 °FMild.1 mph53%29.89 "HgN/A
8:00 PM72 °FMild.3 mph53%29.89 "HgN/A
7:30 PM72 °FSunny.3 mph53%29.89 "HgN/A
7:00 PM72 °FSunny.3 mph50%29.86 "HgN/A
6:30 PM73 °FSunny.3 mph47%29.86 "HgN/A
6:00 PM73 °FSunny.6 mph47%29.86 "HgN/A
5:30 PM73 °FSunny.6 mph47%29.86 "Hg6 mi
5:00 PM73 °FPassing clouds.6 mph44%29.86 "HgN/A
4:30 PM73 °FSunny.6 mph41%29.86 "Hg10 mi
4:00 PM73 °FPassing clouds.6 mph44%29.86 "HgN/A
3:30 PM75 °FPassing clouds.6 mph44%29.86 "HgN/A
3:00 PM73 °FPassing clouds.6 mph50%29.86 "HgN/A
2:30 PM73 °FPassing clouds.6 mph53%29.86 "HgN/A
2:00 PM73 °FPassing clouds.6 mph53%29.86 "HgN/A
1:30 PM72 °FPassing clouds.6 mph53%29.86 "HgN/A
1:00 PM70 °FPassing clouds.8 mph57%29.86 "HgN/A
12:30 PM70 °FPassing clouds.8 mph50%29.86 "HgN/A
12:00 PM70 °FPassing clouds.8 mph50%29.86 "HgN/A
11:30 AM68 °FPassing clouds.8 mph60%29.86 "HgN/A
11:00 AM66 °FPassing clouds.8 mph60%29.86 "HgN/A
10:30 AM66 °FPassing clouds.6 mph68%29.86 "HgN/A
10:00 AM66 °FPassing clouds.8 mph60%29.86 "HgN/A
9:30 AM64 °FPassing clouds.6 mph68%29.86 "HgN/A
9:00 AM63 °FPassing clouds.6 mph77%29.86 "HgN/A
8:30 AM61 °FPassing clouds.6 mph83%29.83 "HgN/A
8:00 AM59 °FSunny.6 mph94%29.83 "Hg10 mi
7:30 AM55 °FPassing clouds.3 mph100%29.83 "Hg6 mi
7:00 AM54 °FFog.1 mph100%29.83 "Hg1 mi
6:30 AM54 °FFog.1 mph94%29.80 "Hg0 mi
6:00 AM52 °FFog.3 mph100%29.80 "Hg0 mi
5:30 AM50 °FFog.3 mph100%29.80 "Hg0 mi
5:00 AM50 °FFog.3 mph94%29.80 "Hg0 mi
4:30 AM50 °FFog.3 mph100%29.80 "Hg0 mi
4:00 AM50 °FFog.1 mph100%29.80 "Hg0 mi
3:30 AM50 °FFog.6 mph100%29.80 "Hg1 mi
3:00 AM52 °FClear.3 mph100%29.77 "Hg0 mi
2:30 AM50 °FClear.3 mph100%29.77 "Hg1 mi
2:00 AM50 °FFog.3 mph100%29.80 "Hg0 mi
1:30 AM50 °FClear.3 mph100%29.80 "Hg0 mi
1:00 AM50 °FFog.3 mph100%29.80 "Hg0 mi
Weather by CustomWeather, © 2016

See weather overviewHow to use our weather pages